Location: Lafig�re
(44.4503°N, 4.0357°E)
Time: 03:29:42
(UTC+00:00)

Transit 4A - Pass Details

Date: 24 January 2021
Orbit: 866 x 978 km, 66.8° (Epoch: 02 March)

Event Time Altitude Azimuth Distance (km) Brightness Sun altitude
Rises 04:16:30 0° 323° (NW) 3,621 - -30.9°
Reaches altitude 10° 04:19:09 10° 318° (NW) 2,656 - -30.4°
Maximum altitude 04:25:01 48° 247° (WSW) 1,189 - -29.4°
Exits shadow 04:28:37 22° 184° (S) 1,868 9.4 -28.7°
Drops below altitude 10° 04:30:42 10° 174° (S) 2,565 10.2 -28.4°
Sets 04:33:14 0° 169° (S) 3,486 11.0 -27.9°
